Location: Nairn
(57.5833°N, 3.8667°W)
Time: 22:27:43
(UTC+00:00)

Tiros 1 - Pass Details

Date: 02 December 2020
Orbit: 630 x 663 km, 48.4° (Epoch: 22 January)

Event Time Altitude Azimuth Distance (km) Brightness Sun altitude
Rises 16:26:38 0° 242° (WSW) 2,993 13.3 -6.3°
Reaches altitude 10° 16:29:16 10° 230° (SW) 2,080 11.5 -6.6°
Maximum altitude 16:33:16 27° 174° (S) 1,274 9.0 -7.1°
Drops below altitude 10° 16:37:16 10° 117° (ESE) 2,071 9.4 -7.6°
Enters shadow 16:39:51 - 105° (ESE) 2,967 10.1 -7.9°
Sets 16:39:53 0° 105° (ESE) 2,978 - -7.9°
